Theta_e
333 334 338 339 340 339 340 340 340 339 337 337 337 336 334 334 334 334 331 325 325 330 332 332 333 333 333 333 334 334 334 335 335 335 336 335 336 337 337 337 337 334 333 333 333 332 332 333 334 333 332 333 333 332 331 331 329 327 328 330 330 331 331 331 331 332 332 332 332 332 332 332 331 331 331 332 333 332 333 333 333 333 332 330 329
333 333 337 338 340 340 340 341 340 339 337 336 336 335 334 333 332 331 328 323 322 328 332 332 332 332 332 332 332 333 333 333 334 334 334 334 335 336 337 336 335 331 329 330 332 332 331 333 333 332 332 332 332 332 331 331 330 328 328 329 329 329 330 330 330 330 331 331 331 331 331 331 331 331 330 331 331 331 330 331 331 331 331 331 330
331 332 336 339 341 340 341 341 340 339 337 336 336 335 334 332 330 328 326 323 324 328 330 331 332 332 332 332 332 332 332 331 332 332 332 332 333 335 335 334 332 330 328 329 330 330 330 332 332 331 329 329 330 330 331 331 330 329 328 328 328 328 328 329 329 329 330 330 330 331 331 331 331 331 330 330 330 329 329 329 330 330 330 330 330
331 331 336 339 340 340 341 341 339 339 337 335 335 335 334 331 329 328 326 323 323 327 329 330 331 332 332 332 331 331 331 331 331 330 329 329 332 335 334 332 330 329 329 328 328 328 330 331 331 329 328 328 329 329 331 331 329 329 329 328 328 327 327 327 328 328 328 329 329 328 329 330 330 331 330 330 330 329 329 329 329 330 330 330 330
333 332 337 339 339 341 340 340 339 337 337 336 337 335 333 331 329 328 327 327 324 325 328 330 331 331 331 331 331 331 331 330 331 331 330 331 333 334 333 330 328 329 330 329 327 329 330 330 330 329 327 328 329 328 330 331 329 328 327 328 328 327 327 328 328 329 328 328 328 328 328 329 329 330 330 330 329 328 328 329 329 329 330 330 330
336 334 338 338 339 341 340 340 338 337 337 337 337 334 331 330 330 327 326 327 326 326 327 329 331 331 331 331 331 331 330 330 333 332 331 333 334 333 331 330 329 329 330 329 327 329 330 329 329 328 326 326 328 329 330 331 329 328 325 325 327 327 328 328 328 328 329 329 329 329 329 330 330 330 329 329 328 328 329 329 329 328 329 330 330
336 335 337 338 339 340 339 339 338 338 338 338 336 333 331 329 329 329 328 325 326 327 326 327 329 331 331 331 331 331 330 332 334 330 330 333 335 333 331 330 329 330 330 329 328 328 329 329 329 328 326 326 326 328 330 330 329 327 324 322 323 326 327 326 326 326 327 328 328 329 329 329 329 330 329 329 329 329 330 329 327 326 327 328 329
336 336 337 338 339 339 339 338 338 338 338 337 335 333 332 330 329 330 330 327 325 325 323 325 328 330 331 331 331 330 330 333 332 329 331 333 334 333 331 330 330 330 328 328 328 328 329 328 329 328 326 326 325 327 329 329 328 327 326 325 323 323 324 324 325 325 325 325 326 326 327 328 330 330 330 330 330 329 328 328 327 326 327 328 329
336 336 336 338 338 338 338 338 338 338 338 335 331 333 333 330 329 329 330 329 326 323 323 326 328 329 330 331 331 330 330 331 331 331 333 333 332 330 330 331 331 330 327 327 328 328 329 328 328 327 325 325 325 327 329 329 328 327 326 326 324 324 324 325 325 325 326 326 326 325 325 327 329 329 330 330 328 327 327 327 328 327 328 328 328
337 337 337 338 337 338 338 338 339 338 337 333 329 331 332 330 329 330 331 330 327 323 322 325 328 328 330 330 331 331 329 330 331 330 330 331 331 330 331 332 332 330 325 326 328 328 328 328 328 326 325 326 326 328 329 328 326 325 325 325 325 325 326 326 326 326 327 328 327 327 328 328 328 328 328 328 327 327 327 327 326 326 326 326 326
337 337 337 337 337 337 337 337 338 338 336 331 329 328 330 331 329 332 333 331 328 323 320 323 327 328 329 330 330 330 329 329 330 328 328 330 331 331 332 332 330 327 323 325 328 328 327 328 327 326 326 326 328 328 328 326 325 324 325 325 326 326 326 327 327 327 328 328 328 328 330 329 328 327 326 326 326 325 325 325 324 324 323 322 323
336 336 337 337 337 336 335 335 336 337 335 329 327 326 329 331 330 332 334 331 328 324 320 321 325 327 328 330 330 330 329 329 330 330 330 331 331 331 332 330 328 324 322 325 327 327 327 328 327 326 326 326 327 328 327 326 325 325 325 326 326 326 327 327 328 328 328 328 328 328 329 329 328 327 327 327 325 322 323 323 322 321 320 321 322
337 336 337 337 337 337 334 332 332 334 333 328 326 326 328 331 331 332 334 331 327 325 321 318 320 324 327 329 330 330 329 329 330 330 330 330 330 330 330 329 327 323 324 326 326 326 327 327 326 325 326 326 326 326 326 326 325 325 326 326 326 326 327 328 328 328 328 328 328 328 329 330 329 328 328 327 323 321 322 321 321 321 321 322 322
339 337 337 337 337 337 336 333 328 329 329 327 325 325 329 332 332 332 333 330 327 325 322 318 316 318 323 327 329 330 329 328 328 329 330 330 330 329 329 327 325 324 325 326 326 326 326 326 324 325 326 326 326 325 326 325 325 326 326 326 326 327 328 328 328 328 328 328 328 329 329 329 329 328 327 326 323 322 321 320 321 322 322 322 322
340 338 337 337 337 337 338 335 328 325 325 325 323 324 330 333 333 333 333 330 327 325 323 319 315 313 317 323 328 329 329 328 328 329 330 329 329 328 328 326 324 324 325 325 326 326 325 325 324 324 324 325 325 325 326 325 325 325 326 326 326 327 327 327 328 328 329 329 329 329 329 329 329 328 326 324 323 322 321 320 320 321 322 322 321
340 339 338 337 337 337 337 336 331 326 324 324 322 323 330 333 334 333 333 331 327 326 324 320 316 312 312 319 326 329 329 328 327 328 329 328 328 327 326 325 325 325 324 324 325 325 325 324 323 323 323 323 324 325 325 325 325 325 325 326 326 327 327 327 328 328 329 329 329 329 329 329 328 327 326 324 322 321 321 321 320 321 321 321 320
340 338 337 337 337 337 337 336 335 332 327 324 322 323 329 332 334 333 333 332 329 327 325 322 318 314 311 313 321 327 328 328 327 327 327 327 326 326 325 325 325 324 323 324 324 324 324 323 323 323 323 323 323 324 325 325 324 325 325 325 326 326 327 328 328 328 329 329 328 328 329 328 327 326 325 324 321 320 321 321 320 320 320 319 319
341 338 337 337 336 336 336 336 336 336 332 326 323 324 328 331 333 333 333 332 331 328 327 325 322 318 313 310 313 320 324 326 327 327 326 326 325 325 325 325 325 324 323 323 323 323 323 323 323 322 322 322 321 322 323 324 324 324 324 325 325 326 327 327 328 328 328 328 328 328 328 327 326 324 323 322 321 320 320 319 318 318 318 318 318
341 338 337 336 336 335 335 336 336 336 333 329 324 324 328 331 332 333 333 332 331 329 327 326 325 322 319 314 310 311 314 317 320 323 324 324 325 325 325 324 324 323 322 322 322 322 321 321 322 322 321 321 321 320 321 322 323 323 323 324 324 325 326 326 326 327 327 327 327 328 327 327 326 324 323 321 320 319 319 318 318 318 318 318 317
341 339 337 336 336 335 335 336 336 336 335 331 326 324 328 330 332 332 332 332 331 330 328 327 326 324 322 320 315 312 308 307 308 313 317 318 320 322 322 322 321 321 320 319 319 319 318 319 321 321 321 320 320 320 319 320 321 321 322 322 323 324 324 324 325 326 326 327 327 327 326 326 325 325 322 320 319 319 319 318 318 318 317 317 316
340 339 338 336 336 335 335 336 336 337 335 333 328 324 327 330 332 332 332 332 332 331 330 328 326 325 324 322 320 316 311 306 303 305 307 308 311 313 314 316 317 317 316 314 312 312 314 318 320 320 320 320 320 320 319 318 318 319 320 320 321 321 322 323 325 325 325 326 326 326 325 325 324 323 321 320 319 319 318 318 317 316 316 316 315
340 339 338 336 336 335 336 335 336 336 336 335 330 325 325 330 331 331 332 332 332 332 330 329 327 326 325 323 321 319 315 310 305 303 304 304 305 306 307 309 309 311 312 311 308 308 310 314 317 318 318 318 318 319 320 319 318 317 317 318 319 319 319 322 324 324 325 325 325 325 324 324 322 321 320 319 318 318 318 317 316 316 316 315 314
340 340 338 337 336 335 336 335 335 336 336 335 333 328 324 328 330 330 331 332 332 332 331 330 328 327 325 324 322 320 319 314 308 304 304 303 303 303 304 305 306 308 311 310 308 307 308 311 315 317 316 316 317 318 319 320 319 318 318 318 319 320 319 320 322 322 323 323 324 324 323 322 321 320 319 319 318 317 317 316 316 316 315 314 312
340 340 339 339 338 336 336 335 335 335 336 335 335 332 327 327 329 330 330 331 332 332 332 331 329 328 326 325 323 321 319 316 311 306 304 303 303 303 303 304 305 308 309 309 308 308 307 310 315 317 316 316 317 318 319 319 319 319 319 319 320 320 321 321 321 321 321 321 322 322 322 321 321 320 319 319 318 317 316 315 315 315 314 313 312
340 340 340 340 339 338 336 336 336 335 336 336 335 335 331 328 329 330 330 331 332 332 332 331 330 329 327 326 324 322 320 318 315 309 304 303 304 303 303 303 305 307 308 309 309 308 308 310 315 317 317 317 317 318 319 319 319 319 319 320 320 321 322 322 322 322 321 322 322 323 322 322 322 321 320 319 318 317 316 315 314 313 313 313 312
340 341 340 341 340 339 338 336 336 336 335 335 335 335 334 332 330 329 330 330 331 332 332 331 331 329 328 326 325 324 321 320 319 314 307 303 305 303 302 303 304 307 309 310 309 307 308 309 312 315 316 317 316 316 317 318 319 319 319 320 320 321 322 322 322 323 323 323 323 323 322 322 322 321 320 318 317 317 316 315 313 313 312 312 311
340 340 340 340 340 339 339 338 338 337 336 335 335 335 336 335 332 330 330 330 330 331 332 332 331 330 328 327 327 326 323 322 321 319 312 306 306 305 303 303 305 308 310 310 309 307 307 308 309 311 313 316 316 316 317 318 319 319 320 320 320 321 321 322 322 323 323 323 323 323 322 321 321 320 319 318 317 316 314 313 313 314 312 311 311
340 340 340 340 339 339 339 339 339 339 337 336 336 336 336 336 335 333 331 330 330 331 331 332 331 330 329 328 328 327 326 325 323 322 317 310 308 307 305 304 305 308 310 310 309 308 307 307 307 307 310 314 316 316 317 318 319 320 320 320 320 321 321 322 322 322 323 323 323 323 322 321 320 320 319 318 317 315 314 313 313 313 311 311 311
339 340 340 340 339 338 338 339 340 340 339 337 336 337 337 337 336 335 333 331 331 330 330 332 331 330 330 329 328 328 328 327 326 323 320 314 309 309 307 305 306 308 310 310 310 309 308 307 307 307 309 313 315 317 317 318 319 319 320 320 320 320 321 321 322 322 322 323 322 322 322 321 320 320 319 318 317 316 315 315 313 312 311 311 310
338 339 339 339 339 338 338 339 339 340 339 338 337 337 337 337 336 335 335 334 332 331 331 331 332 331 330 330 329 329 329 328 328 325 322 318 312 310 309 307 307 308 310 310 309 309 308 308 307 307 308 313 316 316 317 317 318 319 319 319 319 320 321 321 321 321 322 322 322 321 321 321 320 319 318 317 316 315 315 314 312 311 311 311 310
337 338 338 338 339 339 339 339 339 339 339 339 338 337 337 337 336 335 335 335 334 333 332 331 332 331 330 330 329 329 329 329 328 326 324 321 315 313 310 308 308 308 310 310 309 308 308 309 309 308 309 312 315 316 316 317 317 318 319 319 319 319 320 321 321 321 321 321 321 321 320 320 319 317 316 316 315 315 315 314 312 311 311 310 310
335 336 337 337 338 338 339 339 338 339 338 339 339 338 337 336 336 335 335 335 334 334 334 333 332 332 331 330 329 329 330 329 329 328 326 322 318 315 312 310 310 309 309 309 309 309 309 310 310 311 310 312 314 315 315 316 316 317 318 318 318 319 319 320 320 320 320 320 320 319 319 319 317 316 314 314 315 315 314 314 313 312 311 310 309
334 335 335 335 336 337 338 338 338 338 338 339 339 338 338 337 335 335 335 335 335 335 335 335 334 333 332 331 330 330 330 330 329 329 327 324 320 316 313 312 311 310 309 310 311 313 313 312 312 312 312 312 313 314 314 314 315 316 317 318 317 317 318 319 319 319 318 318 318 317 316 316 315 314 313 313 314 313 313 312 312 311 310 310 309
330 332 334 334 334 335 336 337 337 337 338 339 339 338 338 338 337 335 335 335 334 335 335 335 335 334 333 332 331 331 331 331 330 330 328 325 321 317 314 314 312 310 309 312 314 315 315 314 313 313 312 312 312 312 313 313 313 314 315 316 316 316 317 318 318 317 317 316 316 315 314 314 313 312 311 312 311 311 311 311 310 309 309 310 309
328 330 331 331 332 333 334 335 336 337 337 338 338 338 338 338 338 337 336 336 335 335 335 335 334 335 334 333 332 332 332 331 331 331 329 327 324 318 316 315 314 312 312 314 315 315 315 315 314 313 311 311 311 311 311 312 312 312 314 315 316 316 315 316 317 317 316 315 315 315 314 312 312 311 310 310 310 310 309 309 309 308 308 308 308
328 329 329 330 331 331 333 334 334 335 335 336 337 338 338 338 337 337 336 336 336 336 336 335 334 334 334 334 334 333 332 332 331 331 329 328 327 323 319 317 316 314 315 316 316 315 315 314 314 314 312 310 309 310 309 310 310 311 312 313 314 315 315 315 315 316 316 315 315 314 312 310 308 308 308 308 308 309 309 308 308 308 307 307 307
327 328 329 330 332 331 332 333 333 333 334 335 336 337 338 337 337 336 336 336 336 336 336 335 335 334 334 334 334 334 333 332 331 330 329 328 328 326 322 319 317 316 317 317 317 317 316 314 312 312 312 311 309 308 307 307 308 309 309 311 312 313 314 314 314 315 315 315 314 312 309 307 305 304 304 304 305 307 308 308 308 307 307 306 306
325 328 329 330 331 332 332 333 333 332 332 333 335 336 336 337 337 336 335 335 335 335 335 335 335 334 334 334 334 334 334 333 332 330 329 328 328 327 324 322 319 317 318 317 317 317 316 315 313 310 310 310 309 307 306 306 306 307 307 307 309 310 312 312 313 314 314 314 313 312 310 307 302 300 300 301 303 306 306 306 306 306 306 306 306
323 326 329 330 331 332 333 333 333 332 331 332 334 335 335 336 336 335 335 334 334 334 334 334 334 334 334 333 333 334 334 334 333 331 330 328 327 327 325 323 321 319 318 317 316 316 315 314 313 310 307 308 309 307 306 304 303 304 304 303 304 306 307 308 310 311 311 311 312 311 307 302 298 296 297 298 300 303 303 304 304 305 305 305 305
323 325 328 330 330 331 332 332 332 332 331 331 332 333 334 334 334 334 334 333 333 332 332 332 333 333 333 333 333 333 333 334 333 332 331 329 328 327 325 324 322 320 318 317 316 316 315 314 313 311 307 305 305 306 304 302 301 299 299 299 300 300 301 302 303 304 305 306 305 303 299 296 294 295 295 295 295 296 296 298 300 301 301 302 303
324 325 327 329 330 331 331 332 332 332 332 331 332 332 332 332 332 332 332 332 332 331 331 330 330 331 331 331 332 332 332 333 334 333 332 331 330 328 327 324 322 320 318 318 318 317 317 316 313 310 308 305 302 302 302 301 299 296 295 295 295 295 295 296 296 296 298 298 297 296 294 293 292 292 292 292 291 291 292 292 294 294 294 297 298
324 325 326 327 329 331 331 331 331 331 332 331 331 331 331 331 331 331 331 331 331 331 330 330 329 329 329 330 331 332 332 332 332 333 333 332 331 330 328 326 323 320 318 318 319 319 317 315 312 307 305 304 303 300 299 299 297 294 293 292 292 292 293 293 293 293 293 293 293 293 292 291 291 291 291 291 290 290 290 290 290 290 291 293 295
322 324 325 326 328 330 331 331 331 331 331 331 331 331 331 331 330 330 330 330 330 330 330 330 329 329 328 329 330 331 331 331 330 331 332 332 331 330 329 327 326 322 319 317 317 317 315 312 311 309 305 302 302 299 298 300 299 294 293 294 293 291 292 291 291 292 292 291 291 291 291 291 291 291 290 290 290 290 290 290 289 289 289 290 292
321 323 325 326 327 329 330 331 331 331 330 331 330 330 330 330 329 329 329 329 329 329 329 329 329 329 328 328 328 329 330 331 330 330 331 331 331 331 330 329 328 325 321 318 316 316 315 312 309 309 307 302 299 298 298 299 300 297 295 295 293 292 294 292 290 291 291 291 291 290 290 290 290 290 290 290 290 290 290 289 289 289 289 289 289
320 322 323 325 327 327 328 330 330 330 330 330 330 330 329 329 328 328 327 327 327 326 326 326 327 327 328 328 327 328 329 330 331 331 330 330 329 331 331 330 329 328 324 321 318 317 316 314 310 308 308 305 302 298 297 297 299 301 300 297 295 296 297 293 290 291 290 291 291 290 290 290 289 289 290 290 290 290 289 289 289 288 288 288 288
318 320 322 323 325 326 327 328 329 330 330 329 329 329 328 328 328 327 326 325 325 325 325 325 325 325 326 326 327 327 328 329 330 331 331 330 329 329 330 330 329 328 326 323 321 319 317 315 312 309 308 308 305 300 297 296 296 299 302 302 301 301 299 293 292 293 291 290 291 291 290 289 289 289 289 289 289 289 289 289 289 288 288 288 288
315 317 320 322 324 326 327 327 328 328 329 329 328 328 328 327 327 326 326 325 324 324 325 325 324 324 324 325 326 326 327 328 329 330 330 330 331 330 330 330 328 326 325 322 321 320 319 315 312 310 309 308 307 303 299 297 295 296 299 301 302 303 301 296 295 298 296 292 290 290 291 290 289 289 288 289 289 289 289 289 288 288 288 288 287
313 315 317 320 322 323 325 325 327 327 327 327 327 327 327 327 326 326 325 325 324 324 324 324 324 324 323 324 324 325 326 327 328 328 328 328 328 330 330 329 328 327 325 325 324 323 320 317 313 312 310 308 307 307 303 299 296 297 297 299 301 301 300 298 297 298 299 297 292 289 290 290 290 289 289 288 288 288 288 288 288 288 288 287 287
312 313 315 317 319 320 322 323 324 325 325 326 326 326 326 326 326 325 325 325 325 324 323 323 322 322 322 322 323 323 324 324 325 326 326 326 325 326 328 328 327 326 326 326 326 324 322 319 316 313 310 307 307 308 307 303 300 300 299 298 299 299 298 298 297 296 297 299 296 290 289 290 290 290 290 289 288 288 288 288 288 288 288 287 287
313 313 313 314 316 317 319 320 321 322 323 323 324 324 325 325 325 325 324 324 324 323 322 321 320 320 320 320 320 321 322 322 323 323 324 324 323 323 325 325 324 323 324 326 325 322 320 318 317 314 310 307 307 308 307 306 304 303 302 300 298 298 297 296 295 295 294 296 296 291 288 289 289 290 290 289 289 288 288 288 288 287 287 287 287
313 313 313 313 314 315 315 317 318 318 319 320 321 322 322 323 323 323 323 322 322 321 320 319 319 318 318 318 318 318 319 320 320 321 321 322 321 321 322 323 323 323 324 325 325 323 321 320 320 316 312 310 310 308 307 306 305 303 302 301 300 299 300 299 297 297 295 294 296 294 290 289 289 289 290 290 289 289 288 288 288 287 287 287 286
Wind_Speed
17 15 13 11 9 10 12 11 13 15 16 15 14 13 14 14 14 15 15 16 17 17 17 17 17 17 16 16 17 17 17 17 18 18 15 14 15 16 16 17 17 17 18 18 17 18 19 21 22 21 23 24 23 22 22 23 24 25 25 25 24 24 25 26 25 25 24 24 24 24 25 25 26 25 24 23 24 27 28 29 29 30 30 28 29
19 16 14 12 11 12 13 12 14 15 15 15 14 13 14 14 14 15 15 16 17 17 17 16 17 17 16 16 17 17 17 17 17 16 14 14 15 15 16 17 17 17 17 18 17 18 19 20 21 21 23 24 24 22 22 23 23 24 24 24 24 26 27 27 27 27 26 25 25 26 26 25 25 26 25 24 24 26 26 26 27 29 29 28 29
20 18 15 15 13 12 13 13 15 15 15 15 14 14 14 14 14 14 15 16 16 17 17 17 17 17 17 16 16 16 16 17 16 13 13 12 13 14 16 16 15 16 17 17 17 18 20 20 20 21 24 24 24 23 23 23 23 23 24 25 25 27 28 27 28 27 27 27 27 26 27 26 26 25 26 26 26 26 26 26 26 27 27 27 28
20 19 17 16 15 13 13 14 15 15 16 15 15 15 14 14 14 14 15 16 17 17 16 17 17 17 17 16 16 16 16 17 15 12 13 12 13 15 16 15 15 16 17 17 17 19 20 20 20 21 23 23 22 22 22 22 23 23 24 24 24 27 28 28 28 27 27 26 27 26 26 26 26 26 25 26 26 27 27 27 26 26 26 26 27
20 19 17 16 15 14 14 14 15 16 16 15 14 14 14 14 14 14 15 16 17 17 16 17 17 17 17 16 16 16 16 17 14 12 13 14 15 16 15 15 16 17 17 16 17 19 20 20 20 21 22 22 21 21 22 22 23 24 24 24 24 27 27 27 27 27 27 26 27 28 27 27 27 26 25 25 26 26 27 27 26 26 27 26 26
19 19 17 16 15 15 14 15 15 16 15 14 13 14 14 13 13 14 15 16 16 16 16 17 17 17 17 16 16 16 16 16 14 13 14 15 18 17 16 16 17 18 17 17 18 20 21 21 21 22 24 24 22 22 22 22 23 23 23 24 25 26 26 27 27 27 27 28 29 28 28 27 27 25 23 24 25 25 25 25 25 26 26 26 26
19 19 17 16 16 16 15 16 16 15 15 14 13 13 13 13 13 14 15 15 16 16 16 17 17 17 17 16 16 16 16 16 14 13 14 16 18 18 17 17 17 17 17 17 19 20 21 21 21 22 24 24 24 22 22 22 22 22 23 25 25 24 25 26 26 26 27 29 29 28 28 27 26 24 23 24 24 24 24 24 25 26 26 26 26
19 19 17 16 16 17 17 17 16 15 14 13 13 13 13 13 13 14 14 14 15 16 16 17 17 17 17 16 16 16 16 16 14 13 14 15 17 17 17 17 17 16 17 18 19 20 21 21 20 21 23 24 24 23 23 22 21 22 22 23 24 25 26 27 27 26 27 28 27 27 27 26 25 24 24 24 25 25 26 26 26 26 26 26 26
19 18 18 17 17 17 17 17 15 14 13 12 12 13 13 12 12 13 14 13 14 15 16 16 16 17 17 16 16 16 16 16 15 15 15 16 16 15 16 17 18 16 17 18 19 20 21 20 19 20 23 23 24 23 22 21 21 21 21 21 23 26 27 28 27 27 27 26 26 26 26 26 26 26 24 24 25 26 26 26 25 26 26 25 25
19 18 19 17 17 17 17 16 14 14 13 12 12 13 13 12 12 13 13 12 13 15 16 15 16 16 16 16 16 16 16 15 15 14 15 16 15 14 16 17 17 16 16 18 19 20 20 19 19 21 22 23 23 22 21 21 21 21 21 21 23 25 26 26 26 26 26 25 26 26 26 26 26 25 23 23 24 25 25 25 24 25 24 24 24
18 19 19 17 17 16 16 16 14 14 13 13 12 13 13 12 12 12 13 12 12 14 15 15 15 16 15 16 16 16 16 15 15 14 15 16 15 14 16 16 15 14 15 18 20 20 19 18 19 21 22 22 21 20 20 20 20 20 21 21 21 23 24 24 24 24 23 24 25 25 25 25 25 23 22 23 22 23 24 24 23 23 22 23 24
19 19 19 17 16 15 15 15 15 14 13 13 12 12 13 13 12 12 12 11 12 13 14 15 15 15 15 16 16 16 16 15 16 16 16 16 15 14 14 14 13 13 15 18 19 19 18 17 19 22 22 22 21 20 20 19 18 18 19 19 19 19 20 21 22 23 23 23 24 25 25 24 24 23 22 22 22 22 23 23 23 23 22 23 24
19 19 18 17 17 15 14 15 15 14 13 14 13 13 14 13 12 12 12 11 11 12 12 13 14 15 15 16 16 15 15 15 15 15 16 15 13 12 13 14 13 13 16 18 19 19 17 17 20 21 22 21 20 19 19 18 17 16 16 16 16 17 18 19 21 22 21 22 23 24 24 23 23 23 23 23 23 23 23 23 23 24 23 24 24
20 19 19 18 17 16 14 14 14 14 14 14 13 13 14 13 12 12 11 10 10 11 11 12 13 14 14 16 16 15 15 14 14 14 15 14 13 13 13 13 13 14 17 18 19 18 17 18 20 20 20 20 19 17 16 15 15 15 15 14 16 16 17 18 19 20 21 22 23 23 23 23 22 22 22 22 22 22 21 22 23 24 24 24 23
20 20 20 19 18 17 15 14 14 14 14 14 14 13 14 14 12 12 11 10 10 10 11 11 12 13 14 16 17 16 14 13 14 15 14 13 13 14 14 14 14 14 16 17 18 17 17 19 19 18 18 18 17 16 16 15 14 14 14 13 14 15 15 16 18 20 22 23 23 23 23 22 21 20 21 21 21 21 21 22 23 23 23 23 23
19 20 20 20 19 18 16 16 16 15 15 15 14 14 15 14 13 12 12 10 10 10 11 11 11 12 13 15 17 16 14 13 13 13 13 13 13 13 14 14 14 15 15 16 18 17 17 19 19 18 17 17 17 16 16 16 15 15 15 14 14 14 15 16 19 21 22 22 23 22 22 21 20 20 20 20 20 21 22 22 22 22 22 21 21
18 19 21 21 20 19 18 17 17 16 15 15 15 15 16 15 14 13 12 11 10 10 10 11 11 11 12 13 15 16 15 14 14 13 12 12 13 14 14 13 13 14 15 16 17 16 18 19 18 17 17 16 17 17 17 16 16 16 16 16 16 16 16 18 19 20 21 22 22 22 22 20 18 19 20 20 21 22 22 21 21 21 22 21 21
17 19 21 21 21 20 19 18 18 17 16 16 15 16 16 15 15 14 14 12 11 11 10 11 10 10 11 12 13 14 14 14 15 14 13 13 14 14 13 13 14 14 14 15 15 16 18 18 17 17 16 16 17 18 17 17 16 16 16 17 17 17 18 19 19 20 20 21 22 22 21 19 18 18 19 21 21 21 21 20 20 21 21 21 21
18 19 21 21 22 21 20 20 19 18 17 17 16 17 17 16 15 15 14 13 12 11 10 11 11 10 9 10 11 11 12 12 13 15 15 16 16 15 14 14 14 14 14 14 14 15 18 16 16 16 16 16 17 17 17 17 16 16 16 16 17 18 18 19 19 20 20 20 21 21 20 19 19 19 19 21 22 22 22 21 21 21 20 20 20
19 20 22 22 22 21 21 21 20 19 18 17 17 18 18 16 15 15 15 14 13 11 11 12 11 10 9 10 10 10 10 10 12 14 15 16 17 17 16 15 15 14 15 14 14 17 17 16 15 15 15 15 15 16 16 16 15 15 15 15 16 17 18 18 19 20 20 20 19 19 19 18 18 19 20 21 22 22 21 21 21 20 19 19 19
21 21 22 23 23 22 22 22 21 20 19 18 17 18 18 17 16 15 15 14 13 12 12 12 12 11 10 10 10 11 11 11 11 13 14 14 15 16 16 15 15 15 16 17 17 19 18 16 16 15 14 14 15 15 15 15 14 14 14 15 16 17 17 18 19 20 20 19 18 17 17 18 19 19 20 20 21 20 20 20 20 19 19 19 19
24 23 23 24 24 24 23 23 22 21 20 19 18 18 19 18 17 17 16 15 14 14 13 13 12 11 11 11 11 12 12 12 12 13 13 13 14 14 14 14 15 15 16 17 18 20 20 19 18 17 16 15 15 15 14 14 13 13 14 14 16 17 18 18 18 18 18 19 18 16 16 18 20 19 19 19 19 19 20 20 19 18 18 18 19
26 25 25 25 25 26 24 24 23 22 21 20 19 19 20 20 19 18 17 16 16 15 14 14 13 12 12 12 12 12 12 12 13 13 13 13 13 13 13 13 14 14 15 17 18 20 20 20 19 18 17 16 16 16 15 15 14 13 13 14 16 17 18 19 19 18 17 18 18 18 16 16 18 19 19 19 19 19 19 19 19 18 18 18 18
29 28 27 25 26 27 26 25 24 23 23 22 21 20 21 21 20 20 19 18 17 16 15 15 14 12 13 13 12 13 13 13 13 13 13 14 14 14 13 14 14 14 15 17 18 19 19 20 20 18 18 17 17 16 17 16 15 14 13 14 15 16 18 19 19 18 17 17 17 17 17 17 18 19 19 19 19 19 19 18 18 17 17 17 16
30 29 27 27 26 27 27 26 25 25 24 24 23 22 22 22 22 21 20 19 19 18 17 16 15 14 14 14 13 14 14 13 13 13 13 14 15 15 15 15 15 16 16 17 17 18 18 20 20 18 17 16 16 15 15 15 15 15 15 15 16 16 17 18 18 18 19 19 18 17 17 18 18 18 19 18 18 19 19 18 17 16 16 16 16
29 30 30 28 27 27 28 27 27 26 26 25 24 24 24 24 24 23 22 21 20 20 19 18 17 16 16 16 15 15 15 14 14 14 14 15 15 15 16 16 16 16 17 17 17 17 18 19 20 18 16 15 14 13 13 13 14 15 16 17 17 17 17 17 17 18 20 21 21 19 17 17 17 18 18 18 19 19 19 17 16 16 15 15 14
30 31 31 29 28 27 28 28 28 28 28 27 26 25 25 26 25 25 24 23 23 22 22 21 19 19 18 18 17 17 17 16 15 15 15 16 16 16 16 16 16 17 17 17 17 17 17 18 19 18 16 14 13 13 11 12 14 16 17 17 17 17 16 16 17 18 19 20 21 20 18 16 16 17 18 18 18 18 17 16 15 16 15 14 14
31 31 31 31 30 29 29 29 29 29 29 28 27 27 27 27 26 26 26 25 25 24 24 22 22 21 20 20 19 18 18 17 16 17 17 17 17 17 17 17 17 18 18 18 18 18 18 17 17 17 17 15 14 13 12 12 14 15 17 17 17 17 16 16 16 17 17 18 19 19 18 17 16 17 18 19 18 17 16 15 15 15 14 14 14
31 33 32 32 32 31 30 30 30 30 29 29 29 28 28 28 28 28 28 27 27 26 25 24 24 23 22 22 21 20 20 19 18 18 18 18 19 18 18 19 19 19 20 20 19 18 19 18 17 16 16 16 16 14 13 13 14 15 16 17 17 17 17 16 15 15 16 16 17 18 18 17 17 16 18 19 17 17 17 16 15 13 13 13 13
34 34 34 34 34 33 32 32 32 31 31 31 31 30 30 30 30 30 30 29 29 27 26 25 26 26 25 24 23 22 21 21 19 19 19 20 20 20 20 20 20 21 21 21 20 19 19 18 17 17 16 17 17 16 15 14 15 16 16 17 17 17 17 16 15 15 15 15 17 18 18 17 17 15 16 16 15 15 15 15 13 12 12 12 12
34 35 36 36 35 35 35 34 33 32 32 32 33 32 32 32 32 31 31 30 29 29 27 27 27 28 27 26 25 23 23 22 21 20 20 21 21 22 22 22 22 22 22 22 21 19 19 18 17 16 16 17 17 17 16 15 16 16 16 17 17 17 17 16 15 15 16 16 17 18 18 19 19 17 15 13 13 14 14 13 12 12 12 11 11
35 38 39 37 37 37 37 36 35 34 34 33 34 34 34 34 33 32 32 31 30 29 29 28 29 29 29 28 27 25 25 24 23 22 21 22 23 23 24 24 24 24 24 22 21 20 18 17 16 16 16 17 17 17 17 16 16 17 18 18 18 17 18 18 17 17 17 17 18 19 20 21 20 19 17 15 14 13 13 12 12 12 11 10 10
39 40 38 38 38 38 38 37 36 36 35 35 35 35 35 35 34 33 33 32 31 31 31 30 30 30 31 31 30 28 27 26 25 23 22 23 24 24 25 25 25 25 25 23 21 20 18 18 18 17 18 18 18 18 18 17 17 18 19 19 19 19 18 19 19 18 18 18 19 19 20 21 20 20 19 18 16 13 12 10 10 10 10 10 9
40 38 37 39 39 39 38 38 38 38 37 36 36 36 36 35 35 34 34 34 32 32 32 31 30 31 32 33 32 31 30 28 27 25 24 24 25 26 26 26 26 26 26 24 22 21 20 19 19 19 19 19 19 19 19 18 18 19 20 21 21 21 20 20 21 20 19 19 19 18 18 18 19 19 19 19 18 16 13 10 9 8 9 10 9
38 37 39 40 39 39 39 39 39 40 39 38 38 37 37 36 35 34 34 34 33 33 33 32 32 32 33 34 34 34 32 31 30 28 27 26 26 27 27 27 27 27 27 25 23 22 21 20 21 22 21 21 20 20 20 19 20 20 21 22 22 22 22 21 22 22 20 18 19 19 17 16 16 16 16 17 18 17 15 12 11 9 8 9 9
38 39 40 39 39 40 40 40 40 40 41 40 39 38 38 37 36 35 34 34 33 34 34 34 33 32 33 34 36 36 34 34 33 32 31 29 28 29 29 28 28 29 28 26 25 23 22 22 23 24 23 23 22 21 21 20 20 21 21 23 23 24 24 23 22 24 24 20 19 19 17 15 14 14 14 15 16 18 17 16 15 14 12 10 8
39 39 38 38 39 40 40 40 40 41 41 41 40 39 38 38 37 35 34 34 33 34 34 34 34 34 34 34 36 36 36 35 34 34 33 33 31 30 31 31 31 31 30 29 27 26 25 25 25 25 25 25 25 23 22 21 21 21 22 22 23 24 25 26 24 23 25 24 21 18 16 15 15 15 15 15 16 17 18 18 18 17 16 13 9
38 39 38 38 39 39 40 40 40 40 40 41 41 39 38 38 37 36 35 34 34 34 34 34 35 35 35 35 36 36 37 36 35 35 35 35 33 31 33 33 33 33 33 32 30 29 27 27 28 27 26 26 26 25 24 23 22 22 21 21 22 23 24 25 26 25 25 24 23 21 20 19 18 17 16 16 16 17 17 18 18 18 18 17 13
37 38 38 38 37 38 39 39 40 39 39 40 40 39 37 37 37 36 36 36 36 35 35 35 36 35 35 35 35 35 37 37 36 36 36 36 35 34 35 36 36 36 35 34 33 31 30 29 30 29 27 26 26 26 25 24 23 22 22 21 20 21 22 23 25 27 27 26 26 26 24 22 20 19 18 17 17 17 17 17 17 17 18 18 17
35 36 36 36 36 37 38 38 39 39 38 38 38 38 36 36 36 36 37 39 38 38 37 37 37 37 37 36 36 35 36 37 36 36 37 37 36 36 36 37 38 38 37 36 35 34 33 32 32 32 30 26 25 26 26 26 24 20 18 19 19 19 20 21 23 24 25 26 26 26 25 23 21 20 19 18 18 18 18 18 18 17 17 17 17
32 34 35 36 37 37 38 39 39 38 38 38 39 39 38 37 37 38 41 41 40 39 39 39 38 38 37 36 36 36 36 38 38 38 38 38 37 37 37 38 39 39 40 39 38 36 35 35 34 33 32 30 28 27 28 28 24 18 14 14 16 16 16 18 20 21 23 25 26 25 25 24 22 21 20 19 19 19 19 19 19 19 17 17 16
32 34 35 37 38 37 38 38 38 38 39 40 40 41 41 40 39 40 40 39 39 40 40 40 38 37 36 36 36 36 36 37 37 37 38 37 37 38 38 39 39 39 40 39 39 38 37 37 37 34 32 32 31 31 32 29 22 18 15 11 8 10 13 14 16 19 21 23 24 25 25 25 24 22 21 20 19 19 19 19 19 18 18 18 17
33 34 35 36 35 36 37 38 37 38 39 40 40 41 42 41 38 37 36 35 36 39 40 39 38 37 36 36 36 36 37 37 36 36 38 38 38 39 39 38 39 40 40 39 39 39 39 39 39 38 34 31 29 32 36 31 24 21 15 7 4 4 6 12 17 19 20 22 22 24 25 25 24 23 22 22 21 20 19 19 18 18 18 19 18
32 32 33 34 35 36 38 38 38 39 39 39 40 40 39 37 35 33 31 31 32 34 35 36 37 38 38 38 37 38 37 37 37 37 38 39 39 40 40 38 38 39 41 42 41 41 41 40 39 39 37 33 28 31 37 35 30 25 14 4 3 3 4 9 16 19 20 21 22 23 24 24 25 24 24 23 22 21 20 19 19 18 19 19 19
31 33 34 35 36 37 38 38 38 38 38 39 39 38 36 34 33 30 27 26 27 28 30 34 36 37 39 40 40 39 38 38 38 38 39 39 38 39 39 39 40 41 43 44 44 43 43 43 43 41 40 38 33 33 37 37 35 33 22 9 5 4 4 6 10 15 20 23 22 23 24 24 25 25 25 25 23 22 21 21 20 19 19 19 18
33 34 35 35 36 36 37 37 37 37 37 37 37 37 37 35 33 31 29 27 27 29 33 36 37 38 39 39 39 39 39 39 38 39 39 39 39 40 40 40 41 43 46 46 46 45 43 44 45 44 43 41 37 34 37 40 36 35 31 20 10 7 7 10 7 4 14 22 23 23 24 25 25 26 26 26 25 25 23 22 21 20 20 19 18
32 32 32 32 33 33 34 35 36 36 36 36 36 36 36 36 35 35 34 32 32 35 38 37 35 36 37 37 37 38 39 39 39 39 39 39 39 39 40 40 40 42 44 44 44 44 44 45 46 45 44 42 40 36 37 38 34 34 37 29 18 10 11 14 9 3 4 13 21 24 25 25 25 27 28 28 27 26 25 23 22 21 20 20 19
28 27 28 30 31 31 32 33 34 35 35 35 35 36 36 37 37 36 36 36 37 38 37 34 34 34 34 36 37 38 39 40 40 40 40 40 39 39 39 40 40 42 43 44 43 42 43 45 44 45 45 44 44 42 39 38 37 38 39 36 27 18 15 16 17 13 5 3 12 19 25 27 27 29 30 29 29 27 26 24 23 22 21 21 20
23 24 26 28 28 29 29 30 32 33 34 34 34 35 36 37 37 37 37 38 39 38 35 33 33 33 34 36 37 38 39 39 40 41 40 40 40 40 40 40 40 40 43 45 45 44 45 47 46 46 46 45 45 43 39 40 44 42 38 37 34 25 18 16 19 19 10 4 5 9 19 23 25 31 33 30 29 28 26 25 24 24 22 22 21
20 21 23 24 25 26 27 28 30 31 32 32 33 34 35 36 37 38 39 39 38 37 34 33 33 33 34 36 36 38 38 39 40 41 41 41 40 40 41 42 42 41 43 45 45 43 44 46 47 47 48 46 45 44 41 41 44 43 39 38 36 27 18 14 17 21 16 10 7 8 18 21 19 26 32 32 30 29 28 26 25 25 24 23 22
17 19 20 22 23 24 26 28 29 29 30 31 32 33 34 36 38 39 39 39 38 36 35 34 34 33 35 36 36 37 38 38 39 40 41 40 40 40 41 41 42 42 44 45 45 45 45 45 45 46 48 47 45 45 44 41 40 40 38 36 36 34 29 24 25 28 22 15 9 7 16 23 20 21 28 32 32 29 29 28 27 27 25 24 24
Wind_Direction
168 157 154 143 137 135 128 130 122 116 114 112 109 102 98 93 88 82 72 70 80 86 87 91 94 94 94 95 97 96 94 95 97 97 95 92 93 93 91 92 92 93 91 88 89 89 88 87 86 86 86 85 85 86 86 85 84 85 88 88 91 93 93 95 93 91 89 87 85 84 83 82 81 82 83 83 81 81 81 79 76 76 75 74 74
164 157 155 142 139 136 134 134 124 120 119 117 111 105 100 93 86 78 73 73 80 87 89 91 94 96 97 97 100 99 96 97 96 98 102 99 93 92 90 90 90 88 89 89 87 89 90 90 90 90 88 86 86 87 86 86 85 85 87 88 95 99 99 99 97 95 93 91 88 87 85 82 82 81 82 83 80 78 80 81 77 74 73 73 72
156 155 156 146 143 141 140 133 125 124 123 123 115 108 101 92 85 78 77 79 82 85 88 92 94 97 98 99 101 100 98 100 99 99 101 97 92 92 90 85 84 83 85 89 89 91 93 94 94 95 92 90 88 88 87 87 87 87 88 89 95 101 101 100 98 97 97 94 92 90 87 84 83 82 82 82 81 79 79 80 79 76 75 74 73
155 155 155 150 144 144 142 133 127 128 129 125 114 108 101 93 87 83 81 81 83 86 89 92 96 97 98 101 102 101 100 100 101 103 102 101 96 92 89 83 82 83 85 87 91 93 94 96 95 96 96 93 90 91 91 90 89 89 91 91 95 101 102 101 99 98 98 95 93 91 89 88 86 85 85 84 84 83 83 81 80 79 78 77 75
157 155 156 151 145 146 142 135 131 131 129 121 114 109 103 96 91 87 84 81 81 87 91 92 95 97 100 103 103 103 102 101 103 106 104 106 102 92 85 80 82 87 89 89 93 95 96 98 96 98 99 97 94 95 97 95 93 90 92 94 98 102 103 102 99 98 98 96 95 93 91 90 89 86 86 86 85 85 84 83 82 81 79 78 77
160 158 158 152 146 146 144 139 136 134 128 121 118 114 107 101 96 91 88 87 85 86 90 94 97 98 101 103 104 104 103 103 104 101 96 98 97 90 84 81 85 90 90 91 96 97 98 98 98 101 103 102 99 97 98 99 97 92 92 97 102 103 103 102 100 99 100 99 97 95 93 91 89 88 88 89 88 88 87 86 88 86 82 81 80
162 162 159 153 147 146 144 142 140 137 130 126 123 118 112 107 102 96 92 90 90 90 92 97 101 102 102 103 105 104 104 104 100 96 91 91 92 90 87 85 89 94 94 94 98 99 99 100 100 103 104 103 102 99 99 100 100 95 91 95 101 104 104 103 100 100 101 101 98 97 96 94 92 92 94 95 92 92 90 90 92 91 89 87 85
164 165 161 155 149 148 146 144 143 137 131 129 127 122 117 112 107 101 96 91 92 95 95 97 101 105 105 105 106 106 106 104 99 96 94 94 93 91 90 91 94 97 98 98 99 101 101 101 100 103 105 104 105 102 101 101 100 97 96 97 100 106 107 104 101 100 100 99 98 98 99 98 96 93 93 94 95 95 95 93 92 91 89 87 85
165 166 162 156 151 150 148 147 144 137 134 134 131 125 122 116 110 104 101 96 93 96 98 98 100 104 107 108 108 108 108 105 103 100 97 97 95 94 100 103 101 97 97 100 102 103 102 101 99 103 108 106 106 103 101 102 102 103 105 105 104 107 109 106 103 103 102 101 101 101 102 100 96 94 93 92 95 96 95 93 90 90 88 85 84
166 166 164 159 154 154 153 151 146 141 140 139 133 128 126 119 112 106 105 102 96 96 100 102 102 106 108 110 110 109 110 108 108 106 101 98 98 100 105 105 101 98 98 101 104 105 104 103 101 105 110 109 108 106 106 107 108 111 111 110 108 109 111 109 107 106 105 106 106 105 104 103 99 98 97 94 94 94 92 90 89 90 89 86 85
166 165 165 163 158 158 157 156 151 147 147 143 136 130 129 123 117 110 107 104 99 98 101 106 107 110 111 113 113 110 111 111 109 110 106 103 105 104 105 105 103 102 101 104 106 106 107 105 102 104 110 113 110 110 113 114 113 114 114 113 112 112 113 113 111 110 110 111 111 110 108 106 103 100 98 95 95 95 93 91 89 88 86 84 83
167 166 166 166 162 161 160 158 156 154 152 149 143 133 132 128 122 115 113 108 102 101 103 109 112 114 116 116 116 114 114 115 114 113 111 109 109 108 108 109 107 106 105 106 108 109 110 106 105 107 111 115 113 112 115 117 118 118 118 117 117 117 117 116 115 116 115 114 113 112 109 107 105 103 100 97 97 97 92 89 84 82 81 81 80
167 169 168 168 165 164 162 159 158 158 155 153 148 138 137 136 130 125 121 113 105 103 104 110 116 119 121 121 119 118 118 119 118 116 115 113 113 113 113 112 111 110 107 107 110 112 113 110 110 111 112 115 115 114 114 117 120 122 123 122 122 123 122 120 120 120 116 114 114 111 109 107 107 106 102 99 99 97 90 86 82 80 80 80 81
169 172 171 171 168 167 164 159 158 159 160 158 153 145 144 141 137 135 129 120 111 107 106 109 116 121 124 125 122 118 119 121 119 119 120 117 116 116 118 118 116 115 111 111 113 114 118 119 117 117 116 116 116 116 116 118 121 125 128 126 125 126 126 125 122 121 118 115 114 111 110 108 106 105 102 100 99 95 88 86 86 86 85 84 85
171 173 173 173 170 169 167 161 158 160 163 162 158 152 148 145 145 144 136 129 121 115 112 110 116 121 125 129 125 120 120 125 125 126 122 119 118 115 115 116 117 117 115 115 115 116 122 124 123 124 123 121 120 120 120 121 121 123 127 129 129 129 129 126 123 122 119 117 114 112 111 108 106 105 103 100 98 94 89 89 91 91 89 87 87
174 174 174 175 174 172 170 165 161 161 164 165 164 159 154 152 152 149 143 138 130 124 119 115 117 121 126 132 131 126 124 130 134 131 123 122 121 117 117 118 121 122 119 117 116 118 122 125 127 127 125 124 124 125 124 124 124 122 122 125 128 129 129 127 123 121 119 117 115 112 110 109 108 104 101 100 97 94 93 93 94 93 90 90 89
177 177 177 176 177 175 174 170 165 165 167 168 167 164 161 157 157 155 149 146 137 131 125 120 119 122 128 135 138 136 133 133 131 129 126 126 125 122 122 123 124 123 120 119 119 125 128 127 129 128 126 125 125 127 129 128 128 125 121 121 123 124 125 124 121 119 118 117 115 112 111 111 111 106 102 99 96 96 97 97 97 94 91 91 89
180 182 182 180 179 178 178 175 170 169 169 170 170 169 166 163 164 162 157 155 148 139 134 127 123 122 126 134 142 145 144 141 136 135 132 130 128 126 125 123 123 121 121 121 122 129 133 131 131 130 129 128 127 129 131 132 132 131 127 123 123 122 121 120 118 117 116 115 113 113 112 110 108 105 103 99 96 98 98 97 94 91 88 87 86
182 185 185 185 183 181 182 179 176 173 172 172 173 174 172 170 169 168 165 164 158 151 146 138 132 128 128 132 138 144 148 149 148 149 146 142 139 135 132 129 128 127 125 121 120 130 135 135 134 133 133 134 132 132 133 135 135 135 134 129 126 124 119 116 116 115 112 111 113 113 110 106 103 102 101 99 97 97 96 95 93 92 89 88 87
183 187 188 189 186 185 185 183 181 178 177 175 175 177 177 176 174 175 174 172 168 160 155 148 144 141 140 137 136 139 142 146 150 153 153 151 150 147 146 141 138 138 134 129 127 134 138 138 137 137 139 139 138 138 137 137 139 139 140 138 135 130 121 115 115 115 114 114 115 112 108 105 103 102 99 98 98 97 96 95 93 92 90 88 88
183 189 191 192 190 190 189 186 185 183 181 179 178 179 179 181 180 181 181 180 176 169 165 159 155 154 152 150 147 144 143 145 147 151 153 154 154 153 152 148 146 144 143 144 142 140 143 145 145 145 145 145 143 143 141 141 142 143 145 146 145 140 131 124 119 118 119 119 117 114 110 107 105 103 99 99 100 97 96 95 93 91 90 88 88
185 189 194 195 193 193 192 190 188 187 186 184 183 180 181 184 186 187 186 186 182 178 175 169 167 165 163 163 159 154 151 152 153 155 156 156 157 158 155 151 151 149 148 149 148 146 149 154 155 156 155 155 153 150 147 145 145 146 149 153 152 147 142 138 131 126 124 123 121 118 117 111 107 106 105 105 103 99 97 95 94 92 92 91 90
188 190 194 196 197 196 195 194 192 190 190 189 187 184 184 187 190 192 191 189 188 187 184 180 178 175 173 172 167 164 162 160 161 161 161 161 162 164 161 157 157 154 152 151 150 151 154 160 162 164 164 165 164 160 156 153 152 152 154 157 153 147 145 144 142 138 134 130 126 124 125 118 112 112 111 108 105 102 99 96 96 94 93 92 91
192 193 192 195 199 199 198 198 196 194 194 193 191 188 188 190 194 196 196 193 191 192 191 188 186 185 182 177 175 173 171 169 168 170 169 168 168 169 168 165 163 159 156 155 155 156 158 162 166 168 169 170 170 166 163 161 160 161 162 160 152 145 143 141 141 140 139 136 132 132 128 123 119 117 115 111 108 104 102 100 98 96 95 94 93
193 193 193 195 198 201 201 200 199 199 198 198 194 193 193 194 196 198 199 197 196 196 195 193 190 192 189 182 183 180 178 176 176 178 177 176 174 174 173 171 168 164 163 163 162 162 163 165 168 170 169 172 172 169 169 167 166 165 164 162 155 148 144 141 141 141 140 138 137 138 131 126 125 120 116 113 110 106 105 102 99 99 98 97 97
192 194 196 197 198 201 203 202 201 202 202 202 199 198 198 198 199 199 200 200 201 199 197 196 193 195 193 187 187 186 184 183 183 184 184 185 181 178 177 176 174 171 169 170 167 167 169 170 171 172 169 171 171 168 169 170 170 167 164 162 157 154 150 146 145 144 144 142 140 139 134 130 127 123 120 116 113 110 107 102 102 104 101 100 99
193 197 199 200 200 201 204 203 203 204 205 206 204 202 203 204 204 203 202 202 204 203 199 197 195 197 197 193 191 189 187 186 189 189 190 191 188 184 182 181 180 177 174 175 173 172 175 176 176 176 172 172 171 169 169 167 168 167 164 163 160 158 156 152 151 149 148 148 145 140 137 136 132 127 125 121 118 114 108 106 106 105 104 104 103
195 198 201 202 202 203 204 205 205 205 206 206 207 206 206 207 208 207 206 205 206 206 204 200 198 199 201 200 196 194 192 190 193 194 194 194 193 190 186 185 184 181 179 180 179 177 180 182 180 179 177 178 176 174 174 169 168 169 168 165 163 162 161 160 160 156 155 154 148 142 138 139 139 134 130 125 121 115 111 114 113 107 107 108 105
199 200 202 204 205 205 204 206 208 207 207 208 208 208 208 208 210 211 210 208 208 209 209 204 200 201 204 205 203 201 199 197 197 197 197 197 196 194 191 189 187 185 183 183 184 182 183 185 186 184 182 182 182 180 178 172 169 171 171 168 166 167 166 170 173 167 163 160 153 149 144 143 143 138 129 124 119 116 116 118 115 111 113 111 108
206 205 204 206 207 206 206 207 208 208 208 208 209 209 209 209 211 213 213 212 211 212 212 207 204 204 206 208 209 209 207 205 202 201 201 200 199 197 195 191 189 189 187 187 187 188 188 188 189 189 187 186 185 185 184 178 172 172 173 170 169 170 171 174 177 172 166 162 154 149 147 145 140 131 125 122 119 120 121 120 117 118 120 114 112
209 209 209 210 208 207 208 209 208 208 209 209 210 211 210 211 212 214 215 215 214 214 215 212 208 207 209 210 212 214 213 212 209 205 204 204 202 200 198 194 192 192 191 191 191 193 193 192 193 193 193 192 188 187 190 187 177 173 174 172 169 170 170 173 175 168 162 158 152 148 145 142 136 129 126 125 125 126 127 127 126 126 123 118 118
211 213 214 213 211 210 210 210 210 210 210 211 211 212 212 212 213 213 214 216 216 216 219 217 213 211 212 212 213 215 216 216 214 212 209 207 207 204 200 197 196 194 193 195 194 195 196 196 197 196 196 195 192 189 191 194 186 178 177 175 173 171 168 170 174 167 161 156 151 149 146 142 140 137 134 132 131 131 133 131 129 130 127 125 122
213 215 215 214 214 213 212 211 211 212 213 213 213 214 214 214 214 213 214 216 215 217 220 220 218 215 213 213 215 216 216 217 216 216 215 212 211 207 203 201 199 196 195 197 198 198 199 199 197 197 196 195 194 191 190 193 190 184 181 180 178 177 173 173 175 169 164 160 154 151 149 148 147 144 141 141 141 139 143 144 137 136 136 133 127
215 214 215 216 216 215 213 212 212 213 214 215 215 215 216 216 216 215 214 215 215 217 219 220 221 219 216 215 215 216 217 218 218 218 218 216 213 210 207 203 200 199 197 199 202 202 203 202 199 196 194 194 195 194 193 192 190 188 185 185 184 183 182 180 179 175 170 165 163 163 158 156 156 153 152 152 154 148 146 153 154 151 148 145 140
216 214 216 218 217 216 214 213 214 215 215 215 216 216 217 218 217 216 215 216 217 217 219 220 221 222 220 218 216 217 218 218 219 219 218 217 216 213 210 207 203 202 202 203 206 207 208 206 202 197 192 192 195 194 195 195 192 191 189 187 186 187 188 189 186 184 184 176 171 177 176 171 170 168 166 167 168 160 153 156 161 165 163 157 152
218 217 218 217 217 218 216 215 215 216 216 216 217 217 218 218 219 218 218 219 218 217 218 219 220 222 223 222 219 219 219 219 218 218 216 215 217 216 212 209 205 204 206 208 211 212 211 208 205 202 196 192 193 192 194 196 193 191 191 190 189 189 191 195 194 190 194 196 187 186 189 189 188 187 184 180 177 171 165 164 165 168 169 169 171
221 220 219 217 217 217 216 216 217 217 217 217 217 217 218 218 219 220 221 221 221 220 220 220 221 221 222 223 222 220 221 220 218 218 217 215 216 218 215 210 207 206 208 211 214 217 216 211 205 204 204 197 193 192 190 192 192 191 191 192 192 191 192 195 198 196 196 200 200 198 201 204 204 199 193 188 186 182 177 173 172 171 170 169 171
223 223 221 220 219 217 216 217 218 219 219 217 216 217 217 218 220 221 223 224 225 225 224 223 222 222 222 223 223 222 222 221 219 219 218 217 218 218 218 214 210 208 209 211 213 216 218 215 207 203 206 203 197 193 191 189 189 189 189 192 194 195 196 196 199 202 202 204 208 213 216 215 213 206 199 193 189 188 186 183 182 180 175 167 162
225 224 223 221 220 219 218 218 218 219 219 217 216 216 217 218 220 221 223 225 227 227 226 226 225 224 224 223 223 223 224 223 222 221 219 218 217 217 217 216 213 211 210 210 209 211 212 213 209 204 204 205 203 198 192 187 184 186 187 188 193 197 200 200 201 204 206 208 211 214 215 212 210 206 201 197 193 193 194 194 193 190 185 178 173
227 224 222 221 220 219 218 218 219 218 216 214 213 214 216 217 219 220 222 224 226 226 227 228 227 227 227 226 225 224 225 225 224 225 222 219 218 217 217 216 215 212 210 208 207 209 210 210 210 207 203 199 200 199 193 187 179 175 179 186 192 198 202 204 207 208 207 208 209 209 208 208 207 205 204 203 203 204 205 205 203 200 200 197 193
225 223 221 221 220 219 218 218 218 216 214 212 212 213 213 214 216 218 221 222 223 225 226 227 228 229 229 228 227 226 226 225 224 223 223 222 222 220 218 217 215 211 210 210 211 213 213 212 210 207 204 197 194 195 192 184 171 161 167 181 190 197 202 207 211 212 212 212 210 208 207 206 206 206 207 208 209 212 212 212 212 212 213 210 208
224 222 221 222 220 218 218 220 218 215 214 214 213 214 214 215 216 218 221 222 222 223 224 225 227 229 230 229 228 227 226 226 225 224 223 225 226 222 218 216 214 212 210 211 213 214 213 211 205 200 201 200 196 192 188 181 171 165 163 164 179 196 204 213 217 216 216 215 213 211 209 207 207 207 208 210 212 214 215 216 217 217 215 213 213
226 223 221 221 219 217 219 220 219 217 217 217 216 217 218 218 219 221 222 222 224 224 224 225 227 229 231 231 230 229 228 228 227 227 226 226 227 224 220 217 215 213 211 211 211 210 208 206 203 200 197 198 198 194 191 189 180 165 152 156 185 189 214 224 222 220 218 217 216 213 212 210 209 210 210 211 212 214 216 217 217 217 216 215 215
223 222 220 219 218 218 220 220 220 220 219 218 219 219 219 219 220 223 224 225 227 227 227 228 229 229 230 230 231 231 229 229 228 227 227 227 225 224 223 222 221 218 214 212 210 209 208 205 204 202 196 191 192 194 196 197 191 176 154 127 149 162 245 225 213 218 219 218 219 218 216 215 212 212 211 211 213 215 216 217 217 216 216 216 216
220 222 221 220 220 220 221 221 222 223 222 221 220 220 219 219 220 222 224 226 227 227 227 228 228 227 228 228 230 231 230 229 228 227 227 228 229 227 226 226 227 226 221 217 215 213 211 209 206 205 201 197 194 195 198 200 201 197 185 160 142 185 235 185 186 215 219 217 220 221 221 219 216 214 213 212 212 214 216 216 216 216 215 215 215
221 223 223 223 222 222 222 222 222 223 224 224 223 221 221 220 220 219 219 221 223 224 225 226 227 227 228 228 229 231 231 229 228 227 226 227 229 230 230 229 227 224 220 218 217 215 214 212 208 206 206 204 199 195 198 202 205 207 201 194 196 204 184 156 145 210 220 218 221 222 224 223 220 219 217 215 213 213 215 216 216 216 216 215 214
224 224 222 223 223 223 223 222 223 225 225 226 225 224 223 222 222 222 222 222 224 228 229 230 231 232 232 232 231 231 230 229 229 228 228 227 228 229 230 231 231 226 220 216 214 215 217 214 211 210 209 206 203 199 201 201 205 212 213 212 218 215 187 175 170 159 197 222 222 222 226 226 224 224 221 217 214 214 214 215 217 218 217 216 214
226 223 221 222 223 224 225 225 226 226 227 227 226 225 225 224 224 225 226 227 229 233 234 233 235 236 236 235 234 232 231 230 230 231 231 230 230 231 231 231 231 230 225 221 222 223 222 217 215 215 212 208 207 207 205 200 204 213 215 215 221 223 207 197 200 194 163 197 218 221 226 225 225 227 225 220 216 215 214 214 216 219 220 218 216
225 224 223 224 224 225 226 227 227 228 228 228 228 228 228 227 227 226 228 231 233 236 238 238 238 238 239 238 237 236 234 233 232 233 234 233 233 233 233 233 233 232 229 227 228 227 223 220 218 216 213 210 210 211 210 206 208 213 213 213 219 223 221 215 212 208 199 188 197 213 217 217 223 228 226 222 219 216 216 216 217 219 221 221 219
226 227 227 226 226 227 227 228 229 230 230 230 230 230 229 229 229 228 230 233 234 236 238 240 239 238 239 239 238 238 238 237 236 235 236 237 236 235 235 236 238 239 236 231 228 224 220 218 218 217 213 212 212 214 215 214 215 217 214 211 212 214 215 213 212 213 213 216 216 211 203 200 212 224 223 221 220 217 215 215 215 218 220 222 223
229 229 229 229 229 230 230 231 233 232 232 232 231 232 231 230 231 231 232 234 235 236 236 237 238 237 238 239 239 240 240 240 239 239 238 238 238 237 236 236 238 239 237 233 228 225 224 223 224 222 216 215 217 217 217 217 219 220 218 214 211 210 210 211 213 211 209 211 210 201 199 199 208 221 221 220 220 219 217 215 214 215 218 222 224